Belen, NM

6:08 AM MDT on June 27, 2017 (GMT -0600)
Belen

Weather History for KE80 - April, 2014

Change the Weather History Date:

Thursday, April 10, 2014

  Actual Average (KABQ) Record (KABQ)
Temperature  
Mean Temperature 64 °F -  
Max Temperature 82 °F 71 °F 89 °F (1909)
Min Temperature 47 °F 39 °F 24 °F (1909)
Growing Degree Days 14 (Base 50)    
Moisture  
Dew Point 8 °F    
Average Humidity 12    
Maximum Humidity 22    
Minimum Humidity 6    
Precipitation  
Precipitation 0.00 in - - ()
Sea Level Pressure  
Sea Level Pressure 30.08 in    
Wind  
Wind Speed 12 mph (West)    
Max Wind Speed 25 mph    
Max Gust Speed 33 mph    
Visibility 10 miles    
Events      
Averages and records for this station are not official NWS values.
T = Trace of Precipitation, MM = Missing Value Source: NWS Daily Summary

Daily Weather History Graph

Daily Weather History Graph

Search for Another Location

Airport or City:

Trip Planner

Search our weather history database for the weather conditions in past years. The results will help you decide how hot, cold, wet, or windy it might be!

Date:

Astronomy

Apr. 10, 2014 Rise Set
Actual Time 6:42 AM MDT 7:35 PM MDT
Civil Twilight 6:16 AM MDT 8:01 PM MDT
Nautical Twilight 5:46 AM MDT 8:31 PM MDT
Astronomical Twilight 5:14 AM MDT 9:03 PM MDT
Moon 3:31 PM MDT (4/10) 3:55 AM MDT (4/10)
Length of Visible Light 13h 44m
Length of Day
12h 53m
Waxing Gibbous, 80% of the Moon is Illuminated
Apr 10
Waxing Gibbous
Apr 15
Full
Apr 22
Last Quarter
Apr 29
New
May 6
First Quarter

Hourly Weather History & Observations

Time (MDT) Temp. Dew Point Humidity Pressure Visibility Wind Dir Wind Speed Gust Speed Precip Events Conditions
12:15 AM 55.9 °F 9.5 °F 16% 30.09 in 10.0 mi West 9.2 mph - N/A   Clear
12:35 AM 58.1 °F 10.2 °F 15% 30.09 in 10.0 mi West 13.8 mph - N/A   Clear
12:55 AM 60.6 °F 10.9 °F 14% 30.10 in 10.0 mi West 11.5 mph - N/A   Clear
1:15 AM 56.3 °F 9.5 °F 16% 30.10 in 10.0 mi West 11.5 mph - N/A   Clear
1:35 AM 55.8 °F 9.3 °F 16% 30.09 in 10.0 mi West 11.5 mph - N/A   Clear
1:55 AM 57.4 °F 9.5 °F 15% 30.09 in 10.0 mi West 11.5 mph - N/A   Clear
2:15 AM 57.6 °F 9.5 °F 15% 30.10 in 10.0 mi West 12.7 mph - N/A   Clear
2:35 AM 55.4 °F 8.6 °F 15% 30.10 in 10.0 mi WSW 9.2 mph - N/A   Clear
2:55 AM 53.8 °F 8.8 °F 16% 30.10 in 10.0 mi WSW 9.2 mph - N/A   Clear
3:15 AM 53.2 °F 9.1 °F 17% 30.10 in 10.0 mi SW 6.9 mph - N/A   Clear
3:35 AM 54.0 °F 9.5 °F 17% 30.10 in 10.0 mi WSW 8.1 mph - N/A   Clear
3:55 AM 51.8 °F 9.5 °F 18% 30.10 in 10.0 mi West 9.2 mph - N/A   Clear
4:15 AM 47.7 °F 7.7 °F 20% 30.09 in 10.0 mi West 10.4 mph - N/A   Clear
4:35 AM 53.1 °F 9.7 °F 18% 30.09 in 10.0 mi West 12.7 mph - N/A   Clear
4:55 AM 55.2 °F 11.3 °F 17% 30.09 in 10.0 mi West 12.7 mph - N/A   Clear
5:15 AM 57.0 °F 11.8 °F 17% 30.10 in 10.0 mi West 11.5 mph - N/A   Clear
5:35 AM 58.3 °F 12.2 °F 16% 30.10 in 10.0 mi West 10.4 mph - N/A   Clear
5:55 AM 53.6 °F 10.9 °F 18% 30.11 in 10.0 mi West 8.1 mph - N/A   Clear
6:15 AM 54.5 °F 11.1 °F 18% 30.11 in 10.0 mi WSW 5.8 mph - N/A   Clear
6:35 AM 47.8 °F 10.4 °F 22% 30.12 in 10.0 mi SSW 9.2 mph - N/A   Clear
6:55 AM 55.0 °F 11.1 °F 17% 30.12 in 10.0 mi SW 11.5 mph - N/A   Clear
7:15 AM 57.4 °F 11.1 °F 16% 30.13 in 10.0 mi WSW 9.2 mph - N/A   Clear
7:35 AM 60.1 °F 12.0 °F 15% 30.14 in 10.0 mi West 4.6 mph - N/A   Clear
7:55 AM 61.3 °F 12.6 °F 15% 30.14 in 10.0 mi WSW 11.5 mph - N/A   Clear
8:15 AM 62.4 °F 13.1 °F 15% 30.14 in 10.0 mi WSW 16.1 mph - N/A   Clear
8:35 AM 62.4 °F 13.3 °F 15% 30.15 in 10.0 mi WSW 13.8 mph - N/A   Clear
8:55 AM 63.5 °F 13.5 °F 14% 30.15 in 10.0 mi WSW 13.8 mph - N/A   Clear
9:15 AM 64.6 °F 13.3 °F 14% 30.15 in 10.0 mi WSW 9.2 mph - N/A   Clear
9:35 AM 65.1 °F 12.9 °F 13% 30.15 in 10.0 mi WSW 15.0 mph - N/A   Clear
9:55 AM 68.4 °F 13.1 °F 12% 30.15 in 10.0 mi West 16.1 mph 20.7 mph N/A   Clear
10:15 AM 68.0 °F 12.2 °F 12% 30.15 in 10.0 mi West 20.7 mph 24.2 mph N/A   Clear
10:35 AM 70.7 °F 11.3 °F 10% 30.16 in 10.0 mi WNW 13.8 mph 21.9 mph N/A   Clear
10:55 AM 72.7 °F 11.1 °F 9% 30.15 in 10.0 mi WNW 16.1 mph - N/A   Clear
11:15 AM 74.3 °F 10.9 °F 9% 30.14 in 10.0 mi WNW 17.3 mph 23.0 mph N/A   Clear
11:35 AM 75.4 °F 10.6 °F 8% 30.14 in 10.0 mi WNW 18.4 mph 24.2 mph N/A   Clear
11:55 AM 76.5 °F 9.9 °F 8% 30.13 in 10.0 mi NW 19.6 mph 27.6 mph N/A   Clear
12:15 PM 77.0 °F 10.0 °F 8% 30.12 in 10.0 mi NW 18.4 mph 26.5 mph N/A   Clear
12:35 PM 77.2 °F 10.4 °F 8% 30.12 in 10.0 mi NW 11.5 mph 23.0 mph N/A   Clear
12:55 PM 78.4 °F 10.6 °F 8% 30.11 in 10.0 mi West 12.7 mph 21.9 mph N/A   Clear
1:15 PM 79.5 °F 10.8 °F 7% 30.09 in 10.0 mi NW 21.9 mph 28.8 mph N/A   Clear
1:35 PM 80.2 °F 11.1 °F 7% 30.09 in 10.0 mi West 16.1 mph 27.6 mph N/A   Clear
1:55 PM 79.9 °F 11.1 °F 7% 30.08 in 10.0 mi WNW 18.4 mph 25.3 mph N/A   Clear
2:15 PM 80.8 °F 12.2 °F 8% 30.08 in 10.0 mi NW 11.5 mph 21.9 mph N/A   Clear
2:35 PM 80.1 °F 11.3 °F 7% 30.06 in 10.0 mi West 13.8 mph 20.7 mph N/A   Clear
2:55 PM 81.0 °F 10.9 °F 7% 30.05 in 10.0 mi WNW 19.6 mph 24.2 mph N/A   Clear
3:15 PM 81.5 °F 9.5 °F 7% 30.04 in 10.0 mi West 24.2 mph 32.2 mph N/A   Clear
3:35 PM 82.4 °F 9.5 °F 6% 30.04 in 10.0 mi West 20.7 mph 28.8 mph N/A   Clear
3:55 PM 82.0 °F 8.1 °F 6% 30.03 in 10.0 mi West 25.3 mph 33.4 mph N/A   Clear
4:15 PM 81.9 °F 8.4 °F 6% 30.02 in 10.0 mi WNW 25.3 mph 31.1 mph N/A   Clear
4:35 PM 79.5 °F 7.5 °F 6% 30.01 in 10.0 mi WNW 20.7 mph 28.8 mph N/A   Clear
4:55 PM 81.3 °F 9.0 °F 6% 30.01 in 10.0 mi WNW 17.3 mph 25.3 mph N/A   Clear
5:15 PM 81.0 °F 6.8 °F 6% 30.00 in 10.0 mi West 18.4 mph 26.5 mph N/A   Clear
5:35 PM 80.2 °F 6.8 °F 6% 30.00 in 10.0 mi WNW 17.3 mph 23.0 mph N/A   Clear
5:55 PM 79.7 °F 5.9 °F 6% 30.01 in 10.0 mi WNW 19.6 mph 32.2 mph N/A   Clear
6:15 PM 78.4 °F 5.9 °F 6% 30.01 in 10.0 mi WNW 12.7 mph - N/A   Clear
6:35 PM 76.3 °F 5.7 °F 7% 30.01 in 10.0 mi WNW 17.3 mph 20.7 mph N/A   Clear
6:55 PM 75.6 °F 5.5 °F 7% 30.01 in 10.0 mi WNW 15.0 mph 19.6 mph N/A   Clear
7:15 PM 74.5 °F 5.5 °F 7% 30.02 in 10.0 mi WNW 11.5 mph - N/A   Clear
7:35 PM 70.3 °F 4.8 °F 8% 30.02 in 10.0 mi WNW 10.4 mph - N/A   Clear
7:55 PM 66.7 °F 3.7 °F 8% 30.02 in 10.0 mi WNW 9.2 mph - N/A   Clear
8:15 PM 64.0 °F 3.2 °F 9% 30.03 in 10.0 mi WNW 9.2 mph - N/A   Clear
8:35 PM 61.0 °F 2.3 °F 10% 30.04 in 10.0 mi WNW 8.1 mph - N/A   Clear
8:55 PM 59.2 °F 2.3 °F 10% 30.05 in 10.0 mi WNW 8.1 mph - N/A   Clear
9:15 PM 55.8 °F 1.4 °F 11% 30.06 in 10.0 mi WNW 9.2 mph - N/A   Clear
9:35 PM 54.7 °F 1.8 °F 12% 30.06 in 10.0 mi WNW 9.2 mph - N/A   Clear
9:55 PM 52.0 °F 0.5 °F 12% 30.07 in 10.0 mi WNW 10.4 mph - N/A   Clear
10:15 PM 50.9 °F 0.5 °F 13% 30.07 in 10.0 mi WNW 10.4 mph - N/A   Clear
10:35 PM 52.3 °F 0.5 °F 12% 30.07 in 10.0 mi NW 10.4 mph - N/A   Clear
10:55 PM 53.8 °F 0.9 °F 12% 30.07 in 10.0 mi WNW 10.4 mph - N/A   Clear
11:15 PM 52.5 °F 0.5 °F 12% 30.07 in 10.0 mi NW 8.1 mph - N/A   Clear
11:35 PM 51.3 °F 0.3 °F 12% 30.08 in 10.0 mi North 9.2 mph - N/A   Clear
11:55 PM 52.5 °F 1.0 °F 12% 30.09 in 10.0 mi ESE 3.5 mph - N/A   Clear